Weather History for De Queen, AR

Change the Weather History Date:

Sunday, May 6, 2012

  Actual Average Record
Temperature  
Mean Temperature 77 °F 67 °F  
Max Temperature 87 °F 79 °F 89 °F (1959)
Min Temperature 66 °F 56 °F 39 °F (2013)
Degree Days  
Heating Degree Days 0 2  
Month to date heating degree days 0 12  
Since 1 July heating degree days 2414 3033  
Cooling Degree Days 12 4  
Month to date cooling degree days 60 19  
Year to date cooling degree days 181 66  
Growing Degree Days 26 (Base 50)    
Moisture  
Dew Point 69 °F    
Average Humidity 81    
Maximum Humidity 100    
Minimum Humidity 61    
Precipitation  
Precipitation 0.00 in 0.23 in 2.37 in (2009)
Month to date precipitation 0.00 1.38  
Year to date precipitation 12.50 16.95  
Snow  
Snow 0.00 in - - ()
Month to date snowfall 0.0  
Since 1 July snowfall 2.3  
Snow Depth 0.00 in    
Sea Level Pressure  
Sea Level Pressure 29.84 in    
Wind  
Wind Speed 3 mph (ESE)    
Max Wind Speed 10 mph    
Max Gust Speed 15 mph    
Visibility 4 miles    
Events      
T = Trace of Precipitation, MM = Missing Value Source: NWS Daily Summary

Daily Weather History Graph

Daily Weather History Graph

Search for Another Location

Airport:

Trip Planner

Search our weather history database for the weather conditions in past years. The results will help you decide how hot, cold, wet, or windy it might be!

Date:

Astronomy

May. 06, 2012 Rise Set
Actual Time 6:23 AM CDT 8:05 PM CDT
Civil Twilight 5:55 AM CDT 8:32 PM CDT
Nautical Twilight 5:23 AM CDT 9:05 PM CDT
Astronomical Twilight 4:48 AM CDT 9:40 PM CDT
Moon 9:08 PM CDT (5/6) 6:36 AM CDT (5/6)
Length of Visible Light 14h 36m
Length of Day
13h 42m
Full, 100% of the Moon is Illuminated
May 6
Full
May 12
Last Quarter
May 20
New
May 28
First Quarter
Jun 4
Full

Hourly Weather History & Observations

Time (CDT) Temp. Heat Index Dew Point Humidity Pressure Visibility Wind Dir Wind Speed Gust Speed Precip Events Conditions
12:53 AM 68.0 °F - 66.9 °F 96% 29.85 in 6.0 mi NE 3.5 mph - N/A   Clear
1:53 AM 68.0 °F - 66.9 °F 96% 29.84 in 4.0 mi Calm Calm - N/A   Clear
2:08 AM 68.0 °F - 66.2 °F 94% 29.85 in 2.5 mi Calm Calm - N/A   Clear
2:53 AM 66.9 °F - 66.0 °F 97% 29.83 in 4.0 mi Calm Calm - N/A   Clear
3:04 AM 66.2 °F - 64.4 °F 94% 29.85 in 2.5 mi Calm Calm - N/A   Clear
3:17 AM 66.2 °F - 66.2 °F 100% 29.84 in 3.0 mi Calm Calm - N/A   Clear
3:53 AM 66.0 °F - 64.9 °F 96% 29.83 in 2.5 mi Calm Calm - N/A   Clear
4:38 AM 66.2 °F - 64.4 °F 94% 29.84 in 3.0 mi NE 3.5 mph - N/A   Clear
4:53 AM 66.0 °F - 66.0 °F 100% 29.82 in 3.0 mi NNE 3.5 mph - N/A   Clear
5:53 AM 66.0 °F - 64.9 °F 96% 29.83 in 2.5 mi Calm Calm - N/A   Clear
6:11 AM 66.2 °F - 64.4 °F 94% 29.84 in 1.5 mi Calm Calm - N/A   Clear
6:53 AM 66.9 °F - 66.0 °F 97% 29.83 in 1.5 mi Calm Calm - N/A   Clear
7:03 AM 66.2 °F - 66.2 °F 100% 29.85 in 2.5 mi Calm Calm - N/A   Clear
7:44 AM 69.8 °F - 69.8 °F 100% 29.86 in 3.0 mi NE 4.6 mph - N/A   Clear
7:53 AM 70.0 °F - 69.1 °F 97% 29.85 in 3.0 mi ENE 3.5 mph - N/A   Clear
8:11 AM 71.6 °F - 69.8 °F 94% 29.88 in 3.0 mi Calm Calm - N/A   Scattered Clouds
8:23 AM 71.6 °F - 69.8 °F 94% 29.89 in 3.0 mi ENE 4.6 mph - N/A   Mostly Cloudy
8:53 AM 73.0 °F - 70.0 °F 90% 29.88 in 4.0 mi SSE 8.1 mph - N/A   Overcast
9:42 AM 75.2 °F - 69.8 °F 83% 29.89 in 5.0 mi SE 8.1 mph - N/A   Haze
9:53 AM 75.9 °F - 71.1 °F 85% 29.88 in 4.0 mi Variable 3.5 mph - N/A   Haze
10:02 AM 75.2 °F - 69.8 °F 83% 29.89 in 5.0 mi SSE 6.9 mph - N/A   Haze
10:53 AM 78.1 °F - 70.0 °F 76% 29.88 in 6.0 mi SE 3.5 mph - N/A   Haze
11:53 AM 81.0 °F 84.9 °F 71.1 °F 72% 29.87 in 4.0 mi SE 4.6 mph - N/A   Haze
12:53 PM 82.0 °F 85.9 °F 70.0 °F 67% 29.86 in 5.0 mi South 4.6 mph - N/A   Haze
1:18 PM 84.2 °F 89.6 °F 71.6 °F 66% 29.86 in 5.0 mi SSE 4.6 mph - N/A   Haze
1:53 PM 82.9 °F 87.5 °F 71.1 °F 67% 29.84 in 5.0 mi SSW 3.5 mph - N/A   Haze
2:53 PM 84.9 °F 90.1 °F 71.1 °F 63% 29.83 in 6.0 mi Calm Calm - N/A   Haze
3:53 PM 86.0 °F 93.0 °F 73.0 °F 65% 29.81 in 6.0 mi East 6.9 mph - N/A   Haze
4:53 PM 86.0 °F 91.5 °F 71.1 °F 61% 29.80 in 6.0 mi ESE 4.6 mph - N/A   Haze
5:53 PM 84.9 °F 90.7 °F 72.0 °F 65% 29.80 in 5.0 mi ESE 5.8 mph - N/A   Haze
6:53 PM 84.0 °F 89.0 °F 71.1 °F 65% 29.80 in 6.0 mi SSE 5.8 mph - N/A   Haze
7:53 PM 80.1 °F 84.2 °F 73.0 °F 79% 29.80 in 4.0 mi Calm Calm - N/A   Haze
8:53 PM 75.9 °F - 73.0 °F 91% 29.80 in 5.0 mi Calm Calm - N/A   Clear
9:53 PM 73.9 °F - 72.0 °F 93% 29.81 in 5.0 mi Calm Calm - N/A   Clear
10:53 PM 77.0 °F - 71.1 °F 82% 29.81 in 6.0 mi East 3.5 mph - N/A   Haze
11:53 PM 73.9 °F - 72.0 °F 93% 29.84 in 5.0 mi Calm Calm - N/A   Mostly Cloudy